星链-3173 (STARLINK-3173 )

导读 | 豆包AI

STARLINK-3173是美国太空探索技术公司(SpaceX)于2022年1月19日发射的星链低轨卫星,属于全球星链卫星互联网星座的组网卫星之一。星链项目旨在通过近地轨道卫星组网,为全球尤其是偏远、基础设施匮乏区域提供高速低延迟的宽带互联网服务,该卫星持续为星链网络覆盖提供支撑,服务全球互联网接入需求。

基本信息
目录编号:
51111
目录名称:
STARLINK-3173
国际标识:
2022-005H
轨道中心:
EARTH
卫星名称:
星链-3173
卫星全名:
星链-3173 (STARLINK-3173 )
卫星状态:
在轨 (已飞行1563 天)
发射日期:
2022-01-19 UTC
国别 :
美国 (US)
星等 :
--
轨道信息
数据来源 国际轨道数据 AOE轨道数据
星历时间 2026-04-30T21:01:51+0800
12小时前
查看轨道信息
2026-04-29T18:00:00+0800
1天前
查看轨道信息
半长轴 6917.878km 6917.82km
偏心率 0.0001702 0.0002105
轨道倾角 53.219° 53.215°
近地点辐角 87.301° 55.718°
升交点赤经 56.341° 61.398°
平近点角 272.818° 303.460°
近地点 538.563km 538.226km
远地点 540.919km 541.14km
周期 95.437分钟 95.436分钟
每日圈数 15.08841 15.088598
详细信息
固有亮度:
5
最大亮度:
2.5
卫星平台:
Starlink v1.5
覆盖范围:
全球
运营商:
太空探索技术公司
运营商所在国:
美国
制造商(研发单位):
太空探索技术公司
制造商所在国:
美国
使用方式:
暂无
卫星简介
星链(Starlink)计划是由太空探索技术公司(SpaceX)提出的一个巨型低轨卫星互联网星座项目,计划在2019年至2024年间在太空搭建由约1.2万颗卫星组成的“星链”网络,其中1584颗将部署在地球上空550千米处的近地轨道,并从2020年开始工作。该卫星仍在工作。
2D轨道图
3D轨道图
轨道高度分析图
轨道倾角分析图
轨道综合分析图
查看轨道综合分析图